Home   Weather   Garden Grove   Past weeks

Flag for USA Past Weather in Garden Grove, California, USA — Yesterday and Last 2 Weeks

58 °F


Feels Like: 58 °F
Forecast: 58 / 82 °F
Wind: No wind

Location: Fullerton Municipal Airport

Current Time: Oct 22, 2016 at 6:37:24 AM

Latest Report: Oct 22, 2016 at 5:53 AM

Visibility: 10 mi

Pressure: 29.85 "Hg

Humidity: 50%

Dew Point: 39 °F

Location of Garden GroveLocation

Past Weather in Garden Grove — Graph


Garden Grove Temperature Yesterday

Maximum temperature yesterday: 91 °F (at 12:53 PM)
Minimum temperature yesterday: 60 °F (at 4:53 AM)
Average temperature yesterday: 74 °F

High & Low Weather Summary for the Past Weeks

High100 °F (Oct 20, 3:53 PM)94% (Oct 17, 4:53 AM)30.08 "Hg (Oct 17, 4:53 AM)
Low55 °F (Oct 13, 6:53 AM)3% (Oct 20, 2:53 PM)29.79 "Hg (Oct 7, 4:53 PM)
Average71 °F55%29.94 "Hg
* Reported Oct 7 4:53 AM — Oct 22 4:53 AM, Garden Grove, Weather by CustomWeather, © 2016

Note: Actual official high and low records may vary slightly from our data, if they occured in-between our weather recording intervals... More about our weather records


Garden Grove Weather History for the Previous 24 Hours

Scroll right to see more
Time TempWeatherWind HumidityBarometerVisibility
4:53 AM
Sat, Oct 22
58 °FClear.No wind58%29.84 "Hg10 mi
3:53 AM59 °FClear.No wind56%29.84 "Hg10 mi
2:53 AM60 °FClear.No wind56%29.85 "Hg10 mi
1:53 AM60 °FClear.No wind67%29.85 "Hg10 mi
12:53 AM64 °FClear.No wind58%29.86 "Hg10 mi
11:53 PM
Fri, Oct 21
64 °FClear.No wind61%29.86 "Hg10 mi
10:53 PM66 °FClear.No wind59%29.86 "Hg10 mi
9:53 PM70 °FClear.3 mph47%29.86 "Hg10 mi
8:53 PM72 °FClear.3 mph48%29.85 "Hg10 mi
7:53 PM73 °FClear.No wind43%29.83 "Hg10 mi
6:53 PM76 °FClear.3 mph42%29.81 "Hg10 mi
5:53 PM81 °FSunny.5 mph21%29.80 "Hg10 mi
4:53 PM86 °FSunny.6 mph17%29.79 "Hg10 mi
3:53 PM88 °FSunny.7 mph10%29.80 "Hg10 mi
2:53 PM89 °FSunny.7 mph11%29.81 "Hg10 mi
1:53 PM91 °FSunny.5 mph11%29.82 "Hg10 mi
12:53 PM91 °FSunny.6 mph10%29.84 "Hg10 mi
11:53 AM90 °FSunny.6 mph10%29.86 "Hg10 mi
10:53 AM89 °FSunny.3 mph9%29.87 "Hg10 mi
9:53 AM81 °FSunny.No wind13%29.88 "Hg10 mi
8:53 AM74 °FSunny.No wind23%29.88 "Hg10 mi
7:53 AM64 °FSunny.No wind38%29.88 "Hg10 mi
6:53 AM60 °FClear.No wind49%29.87 "Hg10 mi
Weather by CustomWeather, © 2016

See weather overviewHow to use our weather pages